Location: Unspecified
(51.0950°N, 12.9690°E)
Time: 14:57:13
(UTC+00:00)

YAOGAN 1 - Pass Details

Date: 28 October 2021
Orbit: 618 x 620 km, 97.9° (Epoch: 26 November)

Event Time Altitude Azimuth Distance (km) Brightness Sun altitude
Rises 16:40:03 0° 129° (SE) 2,891 5.6 -8.5°
Reaches altitude 10° 16:42:31 10° 116° (ESE) 1,989 4.7 -8.9°
Maximum altitude 16:46:01 25° 62° (ENE) 1,280 3.6 -9.4°
Drops below altitude 10° 16:49:32 10° 8° (N) 2,000 5.0 -10.0°
Sets 16:52:01 0° 355° (N) 2,911 6.0 -10.4°
